Year,Month,Day,Hour,Minute,Value (Times are PST for temperature in C)
2012,08,04,00,00,17.60
2012,08,04,00,01,17.60
2012,08,04,00,02,17.50
2012,08,04,00,03,17.50
2012,08,04,00,04,17.40
2012,08,04,00,05,17.40
2012,08,04,00,06,17.40
2012,08,04,00,07,17.30
2012,08,04,00,08,17.30
2012,08,04,00,09,17.30
2012,08,04,00,10,17.30
2012,08,04,00,11,17.30
2012,08,04,00,12,17.30
2012,08,04,00,13,17.30
2012,08,04,00,14,17.30
2012,08,04,00,15,17.20
2012,08,04,00,16,17.20
2012,08,04,00,17,17.20
2012,08,04,00,18,17.20
2012,08,04,00,19,17.20
2012,08,04,00,20,17.20
2012,08,04,00,21,17.20
2012,08,04,00,22,17.10
2012,08,04,00,23,17.10
2012,08,04,00,24,17.10
2012,08,04,00,25,17.10
2012,08,04,00,26,17.10
2012,08,04,00,27,17.10
2012,08,04,00,28,17.10
2012,08,04,00,29,17.10
2012,08,04,00,30,17.00
2012,08,04,00,31,17.00
2012,08,04,00,32,17.00
2012,08,04,00,33,16.90
2012,08,04,00,34,16.90
2012,08,04,00,35,16.90
2012,08,04,00,36,16.90
2012,08,04,00,37,16.90
2012,08,04,00,38,16.90
2012,08,04,00,39,16.80
2012,08,04,00,40,16.80
2012,08,04,00,41,16.80
2012,08,04,00,42,16.80
2012,08,04,00,43,16.80
2012,08,04,00,44,16.80
2012,08,04,00,45,16.70
2012,08,04,00,46,16.70
2012,08,04,00,47,16.70
2012,08,04,00,48,16.70
2012,08,04,00,49,16.70
2012,08,04,00,50,16.70
2012,08,04,00,51,16.70
2012,08,04,00,52,16.70
2012,08,04,00,53,16.70
2012,08,04,00,54,16.70
2012,08,04,00,55,16.70
2012,08,04,00,56,16.70
2012,08,04,00,57,16.70
2012,08,04,00,58,16.70
2012,08,04,00,59,16.70
2012,08,04,01,00,16.70
2012,08,04,01,01,16.70
2012,08,04,01,02,16.70
2012,08,04,01,03,16.70
2012,08,04,01,04,16.70
2012,08,04,01,05,16.70
2012,08,04,01,06,16.70
2012,08,04,01,07,16.70
2012,08,04,01,08,16.70
2012,08,04,01,09,16.70
2012,08,04,01,10,16.80
2012,08,04,01,11,16.80
2012,08,04,01,12,16.80
2012,08,04,01,13,16.80
2012,08,04,01,14,16.80
2012,08,04,01,15,16.80
2012,08,04,01,16,16.80
2012,08,04,01,17,16.90
2012,08,04,01,18,16.90
2012,08,04,01,19,16.90
2012,08,04,01,20,16.90
2012,08,04,01,21,16.90
2012,08,04,01,22,16.80
2012,08,04,01,23,16.90
2012,08,04,01,24,16.90
2012,08,04,01,25,16.90
2012,08,04,01,26,16.90
2012,08,04,01,27,16.90
2012,08,04,01,28,16.90
2012,08,04,01,29,16.90
2012,08,04,01,30,16.90
2012,08,04,01,31,16.90
2012,08,04,01,32,17.00
2012,08,04,01,33,17.00
2012,08,04,01,34,17.00
2012,08,04,01,35,17.10
2012,08,04,01,36,17.10
2012,08,04,01,37,17.10
2012,08,04,01,38,17.10
2012,08,04,01,39,17.10
2012,08,04,01,40,17.10
2012,08,04,01,41,17.10
2012,08,04,01,42,17.10
2012,08,04,01,43,17.10
2012,08,04,01,44,17.10
2012,08,04,01,45,17.10
2012,08,04,01,46,17.10
2012,08,04,01,47,17.00
2012,08,04,01,48,17.00
2012,08,04,01,49,17.00
2012,08,04,01,50,17.00
2012,08,04,01,51,17.00
2012,08,04,01,52,17.00
2012,08,04,01,53,17.00
2012,08,04,01,54,17.00
2012,08,04,01,55,17.00
2012,08,04,01,56,17.00
2012,08,04,01,57,17.00
2012,08,04,01,58,17.00
2012,08,04,01,59,17.00
2012,08,04,02,00,17.00
2012,08,04,02,01,17.00
2012,08,04,02,02,17.00
2012,08,04,02,03,17.00
2012,08,04,02,04,17.00
2012,08,04,02,05,17.00
2012,08,04,02,06,17.00
2012,08,04,02,07,17.00
2012,08,04,02,08,17.00
2012,08,04,02,09,17.00
2012,08,04,02,10,17.00
2012,08,04,02,11,17.10
2012,08,04,02,12,17.10
2012,08,04,02,13,17.10
2012,08,04,02,14,17.10
2012,08,04,02,15,17.10
2012,08,04,02,16,17.10
2012,08,04,02,17,17.10
2012,08,04,02,18,17.10
2012,08,04,02,19,17.10
2012,08,04,02,20,17.10
2012,08,04,02,21,17.10
2012,08,04,02,22,17.00
2012,08,04,02,23,17.00
2012,08,04,02,24,17.00
2012,08,04,02,25,17.00
2012,08,04,02,26,17.00
2012,08,04,02,27,17.00
2012,08,04,02,28,17.00
2012,08,04,02,29,17.00
2012,08,04,02,30,17.00
2012,08,04,02,31,17.00
2012,08,04,02,32,16.90
2012,08,04,02,33,16.90
2012,08,04,02,34,16.90
2012,08,04,02,35,16.90
2012,08,04,02,36,16.80
2012,08,04,02,37,16.80
2012,08,04,02,38,16.80
2012,08,04,02,39,16.80
2012,08,04,02,40,16.80
2012,08,04,02,41,16.80
2012,08,04,02,42,16.80
2012,08,04,02,43,16.80
2012,08,04,02,44,16.80
2012,08,04,02,45,16.80
2012,08,04,02,46,16.70
2012,08,04,02,47,16.70
2012,08,04,02,48,16.70
2012,08,04,02,49,16.70
2012,08,04,02,50,16.70
2012,08,04,02,51,16.60
2012,08,04,02,52,16.60
2012,08,04,02,53,16.50
2012,08,04,02,54,16.50
2012,08,04,02,55,16.40
2012,08,04,02,56,16.40
2012,08,04,02,57,16.40
2012,08,04,02,58,16.40
2012,08,04,02,59,16.30
2012,08,04,03,00,16.30
2012,08,04,03,01,16.30
2012,08,04,03,02,16.30
2012,08,04,03,03,16.30
2012,08,04,03,06,16.30
2012,08,04,03,07,16.20
2012,08,04,03,08,16.20
2012,08,04,03,09,16.20
2012,08,04,03,10,16.20
2012,08,04,03,11,16.20
2012,08,04,03,12,16.10
2012,08,04,03,13,16.10
2012,08,04,03,14,16.10
2012,08,04,03,15,16.10
2012,08,04,03,16,16.10
2012,08,04,03,17,16.00
2012,08,04,03,18,16.00
2012,08,04,03,19,16.00
2012,08,04,03,20,16.00
2012,08,04,03,21,16.00
2012,08,04,03,22,16.00
2012,08,04,03,23,16.00
2012,08,04,03,24,15.90
2012,08,04,03,25,15.90
2012,08,04,03,26,15.90
2012,08,04,03,27,15.90
2012,08,04,03,28,15.90
2012,08,04,03,29,15.80
2012,08,04,03,30,15.80
2012,08,04,03,31,15.80
2012,08,04,03,32,15.80
2012,08,04,03,33,15.80
2012,08,04,03,34,15.80
2012,08,04,03,35,15.80
2012,08,04,03,36,15.80
2012,08,04,03,37,15.80
2012,08,04,03,38,15.80
2012,08,04,03,39,15.80
2012,08,04,03,40,15.80
2012,08,04,03,41,15.80
2012,08,04,03,42,15.80
2012,08,04,03,43,15.70
2012,08,04,03,44,15.70
2012,08,04,03,45,15.70
2012,08,04,03,46,15.70
2012,08,04,03,47,15.70
2012,08,04,03,48,15.70
2012,08,04,03,49,15.70
2012,08,04,03,50,15.70
2012,08,04,03,51,15.70
2012,08,04,03,52,15.80
2012,08,04,03,53,15.80
2012,08,04,03,54,15.80
2012,08,04,03,55,15.80
2012,08,04,03,56,15.90
2012,08,04,03,57,15.90
2012,08,04,03,58,15.90
2012,08,04,03,59,15.90
2012,08,04,04,00,15.90
2012,08,04,04,01,15.80
2012,08,04,04,02,15.80
2012,08,04,04,03,15.80
2012,08,04,04,04,15.80
2012,08,04,04,05,15.80
2012,08,04,04,06,15.80
2012,08,04,04,07,15.80
2012,08,04,04,08,15.80
2012,08,04,04,09,15.80
2012,08,04,04,10,15.80
2012,08,04,04,11,15.80
2012,08,04,04,12,15.80
2012,08,04,04,13,15.80
2012,08,04,04,14,15.80
2012,08,04,04,15,15.80
2012,08,04,04,16,15.80
2012,08,04,04,17,15.80
2012,08,04,04,18,15.80
2012,08,04,04,19,15.80
2012,08,04,04,20,15.70
2012,08,04,04,21,15.70
2012,08,04,04,22,15.70
2012,08,04,04,23,15.70
2012,08,04,04,24,15.70
2012,08,04,04,25,15.70
2012,08,04,04,26,15.70
2012,08,04,04,27,15.70
2012,08,04,04,28,15.70
2012,08,04,04,29,15.70
2012,08,04,04,30,15.70
2012,08,04,04,31,15.70
2012,08,04,04,32,15.70
2012,08,04,04,33,15.60
2012,08,04,04,34,15.60
2012,08,04,04,35,15.60
2012,08,04,04,36,15.60
2012,08,04,04,37,15.60
2012,08,04,04,38,15.60
2012,08,04,04,39,15.60
2012,08,04,04,40,15.60
2012,08,04,04,41,15.60
2012,08,04,04,42,15.50
2012,08,04,04,43,15.50
2012,08,04,04,44,15.50
2012,08,04,04,45,15.50
2012,08,04,04,46,15.50
2012,08,04,04,47,15.60
2012,08,04,04,48,15.60
2012,08,04,04,49,15.60
2012,08,04,04,50,15.60
2012,08,04,04,51,15.60
2012,08,04,04,52,15.60
2012,08,04,04,53,15.60
2012,08,04,04,54,15.60
2012,08,04,04,55,15.60
2012,08,04,04,56,15.60
2012,08,04,04,57,15.60
2012,08,04,04,58,15.60
2012,08,04,04,59,15.60
2012,08,04,05,00,15.60
2012,08,04,05,01,15.60
2012,08,04,05,02,15.60
2012,08,04,05,03,15.70
2012,08,04,05,04,15.70
2012,08,04,05,05,15.70
2012,08,04,05,06,15.70
2012,08,04,05,07,15.70
2012,08,04,05,08,15.70
2012,08,04,05,09,15.70
2012,08,04,05,10,15.70
2012,08,04,05,11,15.70
2012,08,04,05,12,15.70
2012,08,04,05,13,15.70
2012,08,04,05,14,15.70
2012,08,04,05,15,15.60
2012,08,04,05,16,15.60
2012,08,04,05,17,15.60
2012,08,04,05,18,15.60
2012,08,04,05,19,15.60
2012,08,04,05,20,15.60
2012,08,04,05,21,15.60
2012,08,04,05,22,15.60
2012,08,04,05,23,15.60
2012,08,04,05,24,15.60
2012,08,04,05,25,15.60
2012,08,04,05,26,15.60
2012,08,04,05,27,15.60
2012,08,04,05,28,15.60
2012,08,04,05,29,15.60
2012,08,04,05,30,15.60
2012,08,04,05,31,15.50
2012,08,04,05,32,15.50
2012,08,04,05,33,15.50
2012,08,04,05,34,15.50
2012,08,04,05,35,15.40
2012,08,04,05,36,15.40
2012,08,04,05,37,15.40
2012,08,04,05,38,15.40
2012,08,04,05,39,15.40
2012,08,04,05,40,15.40
2012,08,04,05,41,15.30
2012,08,04,05,42,15.30
2012,08,04,05,43,15.30
2012,08,04,05,44,15.30
2012,08,04,05,45,15.30
2012,08,04,05,46,15.30
2012,08,04,05,47,15.30
2012,08,04,05,48,15.30
2012,08,04,05,49,15.30
2012,08,04,05,50,15.30
2012,08,04,05,51,15.30
2012,08,04,05,52,15.30
2012,08,04,05,53,15.30
2012,08,04,05,54,15.30
2012,08,04,05,55,15.30
2012,08,04,05,56,15.30
2012,08,04,05,57,15.40
2012,08,04,05,58,15.40
2012,08,04,05,59,15.40
2012,08,04,06,00,15.40
2012,08,04,06,01,15.40
2012,08,04,06,02,15.40
2012,08,04,06,03,15.40
2012,08,04,06,04,15.40
2012,08,04,06,05,15.40
2012,08,04,06,06,15.50
2012,08,04,06,07,15.50
2012,08,04,06,08,15.50
2012,08,04,06,09,15.50
2012,08,04,06,10,15.60
2012,08,04,06,11,15.60
2012,08,04,06,12,15.60
2012,08,04,06,13,15.60
2012,08,04,06,14,15.60
2012,08,04,06,15,15.60
2012,08,04,06,16,15.60
2012,08,04,06,17,15.60
2012,08,04,06,18,15.60
2012,08,04,06,19,15.60
2012,08,04,06,20,15.60
2012,08,04,06,21,15.60
2012,08,04,06,22,15.60
2012,08,04,06,23,15.60
2012,08,04,06,24,15.60
2012,08,04,06,25,15.60
2012,08,04,06,26,15.60
2012,08,04,06,27,15.60
2012,08,04,06,28,15.60
2012,08,04,06,29,15.50
2012,08,04,06,30,15.50
2012,08,04,06,31,15.50
2012,08,04,06,32,15.50
2012,08,04,06,33,15.50
2012,08,04,06,34,15.50
2012,08,04,06,35,15.50
2012,08,04,06,36,15.60
2012,08,04,06,37,15.50
2012,08,04,06,38,15.60
2012,08,04,06,39,15.60
2012,08,04,06,40,15.60
2012,08,04,06,41,15.60
2012,08,04,06,42,15.60
2012,08,04,06,43,15.60
2012,08,04,06,44,15.70
2012,08,04,06,45,15.70
2012,08,04,06,46,15.70
2012,08,04,06,47,15.80
2012,08,04,06,48,15.80
2012,08,04,06,49,15.90
2012,08,04,06,50,15.90
2012,08,04,06,51,15.90
2012,08,04,06,52,16.00
2012,08,04,06,53,16.00
2012,08,04,06,54,16.10
2012,08,04,06,55,16.10
2012,08,04,06,56,16.10
2012,08,04,06,57,16.20
2012,08,04,06,58,16.20
2012,08,04,06,59,16.20
2012,08,04,07,00,16.30
2012,08,04,07,01,16.30
2012,08,04,07,02,16.30
2012,08,04,07,03,16.30
2012,08,04,07,04,16.40
2012,08,04,07,05,16.40
2012,08,04,07,06,16.50
2012,08,04,07,07,16.60
2012,08,04,07,08,16.70
2012,08,04,07,09,16.70
2012,08,04,07,10,16.80
2012,08,04,07,11,16.80
2012,08,04,07,12,16.80
2012,08,04,07,13,16.90
2012,08,04,07,14,16.90
2012,08,04,07,15,16.90
2012,08,04,07,16,16.90
2012,08,04,07,17,17.00
2012,08,04,07,18,17.00
2012,08,04,07,19,17.00
2012,08,04,07,20,17.00
2012,08,04,07,21,17.00
2012,08,04,07,22,17.10
2012,08,04,07,23,17.10
2012,08,04,07,24,17.10
2012,08,04,07,25,17.10
2012,08,04,07,26,17.10
2012,08,04,07,27,17.20
2012,08,04,07,28,17.20
2012,08,04,07,29,17.20
2012,08,04,07,30,17.20
2012,08,04,07,31,17.30
2012,08,04,07,32,17.30
2012,08,04,07,33,17.30
2012,08,04,07,34,17.30
2012,08,04,07,35,17.40
2012,08,04,07,36,17.40
2012,08,04,07,37,17.40
2012,08,04,07,38,17.50
2012,08,04,07,39,17.50
2012,08,04,07,40,17.60
2012,08,04,07,41,17.60
2012,08,04,07,42,17.70
2012,08,04,07,43,17.70
2012,08,04,07,44,17.80
2012,08,04,07,45,17.90
2012,08,04,07,46,17.90
2012,08,04,07,47,18.00
2012,08,04,07,48,18.10
2012,08,04,07,49,18.20
2012,08,04,07,50,18.20
2012,08,04,07,51,18.30
2012,08,04,07,52,18.40
2012,08,04,07,53,18.50
2012,08,04,07,54,18.60
2012,08,04,07,55,18.70
2012,08,04,07,56,18.70
2012,08,04,07,57,18.80
2012,08,04,07,58,18.90
2012,08,04,07,59,18.90
2012,08,04,08,00,19.00
2012,08,04,08,01,19.10
2012,08,04,08,02,19.20
2012,08,04,08,03,19.30
2012,08,04,08,04,19.40
2012,08,04,08,05,19.50
2012,08,04,08,06,19.60
2012,08,04,08,07,19.70
2012,08,04,08,08,19.70
2012,08,04,08,09,19.80
2012,08,04,08,10,19.90
2012,08,04,08,11,20.00
2012,08,04,08,12,20.00
2012,08,04,08,13,20.10
2012,08,04,08,14,20.20
2012,08,04,08,15,20.20
2012,08,04,08,16,20.30
2012,08,04,08,17,20.30
2012,08,04,08,18,20.40
2012,08,04,08,19,20.40
2012,08,04,08,20,20.40
2012,08,04,08,21,20.50
2012,08,04,08,22,20.50
2012,08,04,08,23,20.60
2012,08,04,08,24,20.70
2012,08,04,08,25,20.70
2012,08,04,08,26,20.80
2012,08,04,08,27,20.80
2012,08,04,08,28,20.90
2012,08,04,08,29,21.00
2012,08,04,08,30,21.10
2012,08,04,08,31,21.20
2012,08,04,08,32,21.30
2012,08,04,08,33,21.40
2012,08,04,08,34,21.50
2012,08,04,08,35,21.60
2012,08,04,08,36,21.60
2012,08,04,08,37,21.70
2012,08,04,08,38,21.70
2012,08,04,08,39,21.80
2012,08,04,08,40,21.80
2012,08,04,08,41,21.80
2012,08,04,08,42,21.80
2012,08,04,08,43,21.90
2012,08,04,08,44,21.90
2012,08,04,08,45,21.90
2012,08,04,08,46,21.90
2012,08,04,08,47,21.80
2012,08,04,08,48,21.80
2012,08,04,08,49,21.80
2012,08,04,08,50,21.70
2012,08,04,08,51,21.70
2012,08,04,08,52,21.70
2012,08,04,08,53,21.80
2012,08,04,08,54,21.80
2012,08,04,08,55,21.90
2012,08,04,08,56,21.90
2012,08,04,08,57,21.90
2012,08,04,08,58,22.00
2012,08,04,08,59,21.90
2012,08,04,09,00,21.90
2012,08,04,09,01,21.90
2012,08,04,09,02,21.90
2012,08,04,09,03,21.90
2012,08,04,09,04,22.00
2012,08,04,09,05,22.00
2012,08,04,09,06,22.10
2012,08,04,09,07,22.10
2012,08,04,09,08,22.10
2012,08,04,09,09,22.20
2012,08,04,09,10,22.20
2012,08,04,09,11,22.30
2012,08,04,09,12,22.30
2012,08,04,09,13,22.30
2012,08,04,09,14,22.30
2012,08,04,09,15,22.30
2012,08,04,09,16,22.30
2012,08,04,09,17,22.30
2012,08,04,09,18,22.30
2012,08,04,09,19,22.30
2012,08,04,09,20,22.30
2012,08,04,09,21,22.30
2012,08,04,09,22,22.30
2012,08,04,09,23,22.30
2012,08,04,09,24,22.30
2012,08,04,09,25,22.40
2012,08,04,09,26,22.40
2012,08,04,09,27,22.40
2012,08,04,09,28,22.40
2012,08,04,09,29,22.40
2012,08,04,09,30,22.50
2012,08,04,09,31,22.60
2012,08,04,09,32,22.60
2012,08,04,09,33,22.70
2012,08,04,09,34,22.80
2012,08,04,09,35,23.00
2012,08,04,09,36,23.10
2012,08,04,09,37,23.20
2012,08,04,09,38,23.30
2012,08,04,09,39,23.40
2012,08,04,09,40,23.40
2012,08,04,09,41,23.50
2012,08,04,09,42,23.50
2012,08,04,09,43,23.50
2012,08,04,09,44,23.60
2012,08,04,09,45,23.60
2012,08,04,09,46,23.70
2012,08,04,09,47,23.70
2012,08,04,09,48,23.70
2012,08,04,09,49,23.60
2012,08,04,09,50,23.60
2012,08,04,09,51,23.50
2012,08,04,09,52,23.60
2012,08,04,09,53,23.60
2012,08,04,09,54,23.60
2012,08,04,09,55,23.60
2012,08,04,09,56,23.60
2012,08,04,09,57,23.60
2012,08,04,09,58,23.60
2012,08,04,09,59,23.70
2012,08,04,10,00,23.70
2012,08,04,10,01,23.70
2012,08,04,10,02,23.70
2012,08,04,10,03,23.70
2012,08,04,10,04,23.70
2012,08,04,10,05,23.70
2012,08,04,10,06,23.80
2012,08,04,10,07,23.80
2012,08,04,10,08,23.90
2012,08,04,10,09,24.00
2012,08,04,10,10,24.20
2012,08,04,10,11,24.30
2012,08,04,10,12,24.30
2012,08,04,10,13,24.50
2012,08,04,10,14,24.60
2012,08,04,10,15,24.70
2012,08,04,10,16,24.90
2012,08,04,10,17,25.00
2012,08,04,10,18,25.10
2012,08,04,10,19,25.20
2012,08,04,10,20,25.30
2012,08,04,10,21,25.50
2012,08,04,10,22,25.60
2012,08,04,10,23,25.70
2012,08,04,10,24,25.80
2012,08,04,10,25,25.90
2012,08,04,10,26,25.90
2012,08,04,10,27,25.90
2012,08,04,10,28,25.90
2012,08,04,10,29,25.90
2012,08,04,10,30,25.90
2012,08,04,10,31,25.90
2012,08,04,10,32,25.90
2012,08,04,10,33,26.00
2012,08,04,10,34,26.10
2012,08,04,10,35,26.20
2012,08,04,10,36,26.10
2012,08,04,10,37,26.10
2012,08,04,10,38,25.90
2012,08,04,10,39,25.90
2012,08,04,10,40,25.90
2012,08,04,10,41,25.80
2012,08,04,10,42,25.80
2012,08,04,10,43,25.80
2012,08,04,10,44,25.80
2012,08,04,10,45,25.80
2012,08,04,10,46,25.80
2012,08,04,10,47,25.90
2012,08,04,10,48,25.90
2012,08,04,10,49,26.00
2012,08,04,10,50,26.10
2012,08,04,10,51,26.10
2012,08,04,10,52,26.10
2012,08,04,10,53,26.20
2012,08,04,10,54,26.20
2012,08,04,10,55,26.30
2012,08,04,10,56,26.30
2012,08,04,10,57,26.40
2012,08,04,10,58,26.40
2012,08,04,10,59,26.40
2012,08,04,11,00,26.50
2012,08,04,11,01,26.60
2012,08,04,11,02,26.70
2012,08,04,11,03,26.80
2012,08,04,11,04,26.90
2012,08,04,11,05,27.10
2012,08,04,11,06,27.20
2012,08,04,11,07,27.30
2012,08,04,11,08,27.40
2012,08,04,11,09,27.50
2012,08,04,11,10,27.60
2012,08,04,11,11,27.40
2012,08,04,11,12,27.20
2012,08,04,11,13,27.10
2012,08,04,11,14,27.00
2012,08,04,11,15,26.80
2012,08,04,11,16,26.70
2012,08,04,11,17,26.60
2012,08,04,11,18,26.60
2012,08,04,11,19,26.40
2012,08,04,11,20,26.40
2012,08,04,11,21,26.30
2012,08,04,11,22,26.20
2012,08,04,11,23,26.20
2012,08,04,11,24,26.20
2012,08,04,11,25,26.20
2012,08,04,11,26,26.20
2012,08,04,11,27,26.10
2012,08,04,11,28,26.00
2012,08,04,11,29,25.90
2012,08,04,11,30,25.90
2012,08,04,11,31,25.90
2012,08,04,11,32,26.00
2012,08,04,11,33,25.90
2012,08,04,11,34,26.00
2012,08,04,11,35,26.00
2012,08,04,11,36,25.90
2012,08,04,11,37,25.90
2012,08,04,11,38,25.90
2012,08,04,11,39,25.90
2012,08,04,11,40,25.90
2012,08,04,11,41,25.90
2012,08,04,11,42,25.90
2012,08,04,11,43,25.80
2012,08,04,11,44,25.80
2012,08,04,11,45,25.90
2012,08,04,11,46,25.90
2012,08,04,11,47,26.00
2012,08,04,11,48,26.10
2012,08,04,11,49,26.20
2012,08,04,11,50,26.10
2012,08,04,11,51,26.10
2012,08,04,11,52,26.10
2012,08,04,11,53,26.30
2012,08,04,11,54,26.30
2012,08,04,11,55,26.30
2012,08,04,11,56,26.30
2012,08,04,11,57,26.20
2012,08,04,11,58,26.10
2012,08,04,11,59,26.10
2012,08,04,12,00,26.10
2012,08,04,12,01,26.10
2012,08,04,12,02,26.10
2012,08,04,12,03,26.00
2012,08,04,12,04,25.90
2012,08,04,12,05,25.90
2012,08,04,12,06,25.90
2012,08,04,12,07,25.80
2012,08,04,12,08,25.70
2012,08,04,12,09,25.70
2012,08,04,12,10,25.70
2012,08,04,12,11,25.80
2012,08,04,12,12,25.90
2012,08,04,12,13,25.90
2012,08,04,12,14,26.00
2012,08,04,12,15,26.00
2012,08,04,12,16,26.10
2012,08,04,12,17,26.10
2012,08,04,12,18,26.10
2012,08,04,12,19,26.20
2012,08,04,12,20,26.20
2012,08,04,12,21,26.20
2012,08,04,12,22,26.30
2012,08,04,12,23,26.30
2012,08,04,12,24,26.30
2012,08,04,12,25,26.20
2012,08,04,12,26,26.20
2012,08,04,12,27,26.30
2012,08,04,12,28,26.30
2012,08,04,12,29,26.30
2012,08,04,12,30,26.40
2012,08,04,12,31,26.40
2012,08,04,12,32,26.50
2012,08,04,12,33,26.50
2012,08,04,12,34,26.60
2012,08,04,12,35,26.70
2012,08,04,12,36,26.80
2012,08,04,12,37,26.90
2012,08,04,12,38,27.00
2012,08,04,12,39,27.10
2012,08,04,12,40,27.20
2012,08,04,12,41,27.20
2012,08,04,12,42,27.30
2012,08,04,12,43,27.40
2012,08,04,12,44,27.40
2012,08,04,12,45,27.30
2012,08,04,12,46,27.40
2012,08,04,12,47,27.50
2012,08,04,12,48,27.40
2012,08,04,12,49,27.40
2012,08,04,12,50,27.40
2012,08,04,12,51,27.40
2012,08,04,12,52,27.40
2012,08,04,12,53,27.40
2012,08,04,12,54,27.40
2012,08,04,12,55,27.30
2012,08,04,12,56,27.30
2012,08,04,12,57,27.30
2012,08,04,12,58,27.30
2012,08,04,12,59,27.20
2012,08,04,13,00,27.10
2012,08,04,13,01,27.10
2012,08,04,13,02,27.10
2012,08,04,13,03,27.10
2012,08,04,13,04,27.10
2012,08,04,13,05,27.20
2012,08,04,13,06,27.20
2012,08,04,13,07,27.20
2012,08,04,13,08,27.20
2012,08,04,13,09,27.10
2012,08,04,13,10,27.00
2012,08,04,13,11,26.90
2012,08,04,13,12,26.90
2012,08,04,13,13,26.90
2012,08,04,13,14,26.90
2012,08,04,13,15,27.00
2012,08,04,13,16,27.10
2012,08,04,13,17,27.30
2012,08,04,13,18,27.50
2012,08,04,13,19,27.60
2012,08,04,13,20,27.60
2012,08,04,13,21,27.60
2012,08,04,13,22,27.60
2012,08,04,13,23,27.70
2012,08,04,13,24,27.60
2012,08,04,13,25,27.60
2012,08,04,13,26,27.70
2012,08,04,13,27,27.80
2012,08,04,13,28,27.80
2012,08,04,13,29,27.80
2012,08,04,13,30,27.70
2012,08,04,13,31,27.80
2012,08,04,13,32,27.80
2012,08,04,13,33,27.80
2012,08,04,13,34,27.90
2012,08,04,13,35,27.90
2012,08,04,13,36,27.90
2012,08,04,13,37,27.80
2012,08,04,13,38,27.90
2012,08,04,13,39,27.90
2012,08,04,13,40,27.90
2012,08,04,13,41,27.90
2012,08,04,13,42,28.00
2012,08,04,13,43,28.00
2012,08,04,13,44,27.90
2012,08,04,13,45,27.80
2012,08,04,13,46,27.80
2012,08,04,13,47,27.80
2012,08,04,13,48,27.80
2012,08,04,13,49,27.80
2012,08,04,13,50,27.80
2012,08,04,13,51,27.90
2012,08,04,13,52,28.00
2012,08,04,13,53,28.00
2012,08,04,13,54,28.10
2012,08,04,13,55,28.10
2012,08,04,13,56,28.10
2012,08,04,13,57,28.10
2012,08,04,13,58,28.10
2012,08,04,13,59,28.10
2012,08,04,14,00,28.10
2012,08,04,14,01,28.10
2012,08,04,14,02,28.10
2012,08,04,14,03,28.10
2012,08,04,14,04,28.20
2012,08,04,14,05,28.30
2012,08,04,14,06,28.30
2012,08,04,14,07,28.20
2012,08,04,14,08,28.20
2012,08,04,14,09,28.20
2012,08,04,14,10,28.20
2012,08,04,14,11,28.10
2012,08,04,14,12,28.10
2012,08,04,14,13,28.00
2012,08,04,14,14,28.00
2012,08,04,14,15,28.10
2012,08,04,14,16,28.00
2012,08,04,14,17,28.00
2012,08,04,14,18,28.00
2012,08,04,14,19,28.10
2012,08,04,14,20,28.10
2012,08,04,14,21,28.20
2012,08,04,14,22,28.20
2012,08,04,14,23,28.20
2012,08,04,14,24,28.20
2012,08,04,14,25,28.10
2012,08,04,14,26,28.10
2012,08,04,14,27,28.10
2012,08,04,14,28,28.10
2012,08,04,14,29,28.10
2012,08,04,14,30,28.10
2012,08,04,14,31,28.10
2012,08,04,14,32,28.10
2012,08,04,14,33,28.10
2012,08,04,14,34,28.10
2012,08,04,14,35,28.10
2012,08,04,14,36,28.20
2012,08,04,14,37,28.20
2012,08,04,14,38,28.20
2012,08,04,14,39,28.20
2012,08,04,14,40,28.20
2012,08,04,14,41,28.40
2012,08,04,14,42,28.60
2012,08,04,14,43,28.70
2012,08,04,14,44,28.80
2012,08,04,14,45,28.80
2012,08,04,14,46,28.90
2012,08,04,14,47,28.90
2012,08,04,14,48,28.90
2012,08,04,14,49,28.90
2012,08,04,14,50,28.90
2012,08,04,14,51,28.90
2012,08,04,14,52,28.80
2012,08,04,14,53,28.80
2012,08,04,14,54,28.80
2012,08,04,14,55,28.70
2012,08,04,14,56,28.60
2012,08,04,14,57,28.60
2012,08,04,14,58,28.60
2012,08,04,14,59,28.60
2012,08,04,15,00,28.60
2012,08,04,15,01,28.70
2012,08,04,15,02,28.60
2012,08,04,15,03,28.60
2012,08,04,15,04,28.50
2012,08,04,15,05,28.40
2012,08,04,15,06,28.40
2012,08,04,15,07,28.40
2012,08,04,15,08,28.60
2012,08,04,15,09,28.70
2012,08,04,15,10,28.80
2012,08,04,15,11,28.90
2012,08,04,15,12,29.00
2012,08,04,15,13,29.00
2012,08,04,15,14,29.00
2012,08,04,15,15,29.10
2012,08,04,15,16,29.10
2012,08,04,15,17,29.10
2012,08,04,15,18,29.10
2012,08,04,15,19,29.10
2012,08,04,15,20,29.10
2012,08,04,15,21,29.20
2012,08,04,15,22,29.20
2012,08,04,15,23,29.20
2012,08,04,15,24,29.10
2012,08,04,15,25,29.10
2012,08,04,15,26,29.10
2012,08,04,15,27,29.10
2012,08,04,15,28,29.10
2012,08,04,15,29,29.10
2012,08,04,15,30,29.10
2012,08,04,15,31,29.10
2012,08,04,15,32,29.10
2012,08,04,15,33,29.00
2012,08,04,15,34,28.90
2012,08,04,15,35,28.90
2012,08,04,15,36,29.00
2012,08,04,15,37,29.10
2012,08,04,15,38,29.20
2012,08,04,15,39,29.30
2012,08,04,15,40,29.30
2012,08,04,15,41,29.30
2012,08,04,15,42,29.30
2012,08,04,15,43,29.30
2012,08,04,15,44,29.40
2012,08,04,15,45,29.40
2012,08,04,15,46,29.30
2012,08,04,15,47,29.30
2012,08,04,15,48,29.30
2012,08,04,15,49,29.30
2012,08,04,15,50,29.40
2012,08,04,15,51,29.40
2012,08,04,15,52,29.50
2012,08,04,15,53,29.60
2012,08,04,15,54,29.60
2012,08,04,15,55,29.60
2012,08,04,15,56,29.50
2012,08,04,15,57,29.40
2012,08,04,15,58,29.30
2012,08,04,15,59,29.20
2012,08,04,16,00,29.20
2012,08,04,16,01,29.20
2012,08,04,16,02,29.20
2012,08,04,16,03,29.20
2012,08,04,16,04,29.20
2012,08,04,16,05,29.30
2012,08,04,16,06,29.30
2012,08,04,16,07,29.20
2012,08,04,16,08,29.20
2012,08,04,16,09,29.20
2012,08,04,16,10,29.20
2012,08,04,16,11,29.30
2012,08,04,16,12,29.40
2012,08,04,16,13,29.40
2012,08,04,16,14,29.50
2012,08,04,16,15,29.50
2012,08,04,16,16,29.50
2012,08,04,16,17,29.60
2012,08,04,16,18,29.60
2012,08,04,16,19,29.60
2012,08,04,16,20,29.60
2012,08,04,16,21,29.70
2012,08,04,16,22,29.70
2012,08,04,16,23,29.80
2012,08,04,16,24,29.80
2012,08,04,16,25,29.80
2012,08,04,16,26,29.80
2012,08,04,16,27,29.80
2012,08,04,16,28,29.80
2012,08,04,16,29,29.90
2012,08,04,16,30,29.80
2012,08,04,16,31,29.70
2012,08,04,16,32,29.60
2012,08,04,16,33,29.60
2012,08,04,16,34,29.60
2012,08,04,16,35,29.60
2012,08,04,16,36,29.60
2012,08,04,16,37,29.60
2012,08,04,16,38,29.60
2012,08,04,16,39,29.60
2012,08,04,16,40,29.60
2012,08,04,16,41,29.70
2012,08,04,16,42,29.70
2012,08,04,16,43,29.80
2012,08,04,16,44,29.80
2012,08,04,16,45,29.80
2012,08,04,16,46,29.90
2012,08,04,16,47,29.90
2012,08,04,16,48,30.00
2012,08,04,16,49,30.00
2012,08,04,16,50,30.10
2012,08,04,16,51,30.20
2012,08,04,16,52,30.20
2012,08,04,16,53,30.10
2012,08,04,16,54,30.00
2012,08,04,16,55,30.00
2012,08,04,16,56,29.90
2012,08,04,16,57,30.00
2012,08,04,16,58,30.00
2012,08,04,16,59,30.00
2012,08,04,17,00,29.90
2012,08,04,17,01,29.90
2012,08,04,17,02,30.00
2012,08,04,17,03,30.00
2012,08,04,17,04,30.00
2012,08,04,17,05,30.10
2012,08,04,17,06,30.10
2012,08,04,17,07,30.10
2012,08,04,17,08,30.10
2012,08,04,17,09,30.10
2012,08,04,17,10,30.20
2012,08,04,17,11,30.20
2012,08,04,17,12,30.20
2012,08,04,17,13,30.20
2012,08,04,17,14,30.20
2012,08,04,17,15,30.10
2012,08,04,17,16,30.00
2012,08,04,17,17,29.90
2012,08,04,17,18,29.80
2012,08,04,17,19,29.70
2012,08,04,17,20,29.70
2012,08,04,17,21,29.70